Regional Weather Roundup
Issued by NWS

Home | Current Version | Previous Version | Graphics & Text | Print | Product List | Glossary On
Versions: 1 2 3 4 5 6 7 8 9 10 11 12 13 14 15 16 17 18 19 20 21 22 23 24 25 26 27 28 29 30 31 32 33 34 35 36 37 38 39 40 41 42 43 44 45 46 47 48 49 50
000
ASUS43 KLMK 040510
RWRKY
KENTUCKY REGIONAL WEATHER ROUNDUP
NATIONAL WEATHER SERVICE LOUISVILLE KY
1200 AM EST WED MAR 04 2015

NOTE "FAIR" INDICATES FEW OR NO CLOUDS BELOW 12,000 FEET
WITH NO SIGNIFICANT WEATHER AND/OR OBSTRUCTIONS TO VISIBILITY.

KYZ001>023-026-027-061>063-070>075-040600-
WESTERN AND SOUTH CENTRAL KENTUCKY

CITY           SKY/WX    TMP DP  RH WIND       PRES   REMARKS
PADUCAH        HVY RAIN  47  46  97 NW5       29.89R FOG
HENDERSON      CLOUDY    43  41  93 N6        29.91S
OWENSBORO      HVY RAIN  46  45  93 N9        29.91S FOG
HOPKINSVILLE   CLOUDY    63  61  94 SW20      29.85S
BOWLING GREEN  CLOUDY    62  59  90 W9        29.86R
GLASGOW        CLOUDY    60  60  97 SW10G21   29.85S
$$

KYZ024-025-028>034-038-045-046-053-040600-
NORTH CENTRAL KENTUCKY

CITY           SKY/WX    TMP DP  RH WIND       PRES   REMARKS
LOUISVILLE/SDF RAIN      48  45  89 NW9       29.88S FOG
LOUISVILLE/LOU HVY RAIN  47  45  93 NW8       29.89R FOG
FORT KNOX      HVY RAIN  48  46  93 W13       29.87R FOG
$$

KYZ035>037-039>044-047>052-055>060-089>105-040600-
NORTHEAST KENTUCKY

CITY           SKY/WX    TMP DP  RH WIND       PRES   REMARKS
LEXINGTON      HVY RAIN  50  49  96 NW5       29.86S FOG
COVINGTON      RAIN      41  38  89 W10       29.84F FOG
FRANKFORT      RAIN      48  46  93 NW8       29.85F FOG
$$

KYZ054-064>069-076>088-106>120-040600-
SOUTHEAST KENTUCKY

CITY           SKY/WX    TMP DP  RH WIND       PRES   REMARKS
JACKSON        LGT RAIN  56  55  97 MISG      29.85F VSB 1/2
LONDON         LGT RAIN  59  54  83 SW12G18   29.88F
SOMERSET       HVY RAIN  55  55 100 CALM      29.89F
MIDDLESBORO    CLOUDY    53  53 100 S5        29.94S
MONTICELLO     CLOUDY    62  61  97 SW12G20   29.90F
$$



USA.gov is the U.S. government's official web portal to all federal, state and local government web resources and services.